Location: Godiavel Galaoual
(15.2485°N, 12.6604°W)
Time: 11:06:05
(UTC+00:00)

A-11 Canister half - All Passes

Search period start: 13 June 2021 00:00
Search period end: 23 June 2021 00:00
Orbit: 1513 x 1686 km, 47.2° (Epoch: 12 June)

Date Brightness Start Highest point End Pass type
(mag) Time Alt. Az. Time Alt. Az. Time Alt. Az.
13 Jun - 03:29:03 10° S 03:37:36 31° SE 03:45:58 10° ENE visible
13 Jun - 05:32:19 10° SW 05:42:18 63° NW 05:52:01 10° NE visible
13 Jun - 07:43:10 10° WNW 07:48:44 16° NNW 07:54:14 10° N daylight
13 Jun - 12:04:46 10° N 12:08:31 13° NNE 12:12:14 10° NE daylight
13 Jun - 14:06:14 10° NNW 14:15:12 52° NE 14:24:06 10° ESE daylight
13 Jun - 16:11:41 10° WNW 16:19:45 35° SW 16:27:55 10° S daylight
14 Jun - 03:06:25 10° S 03:14:40 28° SE 03:22:46 10° ENE visible
14 Jun - 05:09:17 10° SW 05:19:20 67° NW 05:29:09 10° NE visible
14 Jun - 07:19:35 10° WNW 07:25:38 17° NNW 07:31:35 10° N daylight
14 Jun - 11:42:18 10° N 11:45:24 12° NNE 11:48:29 10° NE daylight
14 Jun - 13:43:24 10° NNW 13:52:16 48° NE 14:01:03 10° ESE daylight
14 Jun - 15:48:35 10° WNW 15:56:52 38° SW 16:05:14 10° SSE daylight
15 Jun - 02:43:49 10° S 02:51:44 26° SE 02:59:32 10° ENE visible
15 Jun - 04:46:16 10° SW 04:56:23 73° NW 05:06:16 10° NE visible
15 Jun - 06:56:05 10° WNW 07:02:32 19° NNW 07:08:55 10° N daylight
15 Jun - 11:19:59 10° N 11:22:16 11° NNE 11:24:33 10° NE daylight
15 Jun - 13:20:34 10° NNW 13:29:19 44° NE 13:37:59 10° ESE daylight
15 Jun - 15:25:31 10° WNW 15:34:00 42° SW 15:42:32 10° SSE daylight
16 Jun - 02:21:17 10° S 02:28:49 24° SE 02:36:14 10° ENE visible
16 Jun - 04:23:15 10° SW 04:33:26 78° NW 04:43:23 10° NE visible
16 Jun - 06:32:35 10° WNW 06:39:27 20° NW 06:46:13 10° N daylight
16 Jun - 10:58:07 10° NNE 10:59:07 10° NNE 11:00:08 10° NNE daylight
16 Jun - 12:57:44 10° NNW 13:06:22 41° NE 13:14:53 10° ESE daylight
16 Jun - 15:02:28 10° WNW 15:11:07 46° SW 15:19:49 10° SSE daylight
17 Jun - 01:58:47 10° S 02:05:53 21° SE 02:12:53 10° E visible
17 Jun - 04:00:16 10° SW 04:10:29 83° NW 04:20:28 10° NE visible
17 Jun - 06:09:09 10° W 06:16:22 22° NW 06:23:30 10° NNE daylight
17 Jun - 12:34:55 10° NNW 12:43:25 38° NE 12:51:46 10° ESE daylight
17 Jun - 14:39:26 10° WNW 14:48:15 50° SW 14:57:04 10° SSE daylight
18 Jun - 01:36:22 10° SSE 01:42:56 19° SE 01:49:27 10° E visible
18 Jun - 03:37:18 10° SW 03:47:32 89° NW 03:57:33 10° NE visible
18 Jun - 05:45:45 10° W 05:53:19 24° NW 06:00:46 10° NNE visible
18 Jun - 12:12:06 10° NNW 12:20:26 35° NE 12:28:38 10° ESE daylight
18 Jun - 14:16:25 10° NW 14:25:22 55° SW 14:34:18 10° SSE daylight
19 Jun - 01:14:01 10° SSE 01:20:00 17° SE 01:25:56 10° E visible
19 Jun - 03:14:22 10° SW 03:24:35 85° SE 03:34:37 10° NE visible
19 Jun - 05:22:23 10° W 05:30:15 25° NW 05:38:01 10° NNE visible
19 Jun - 11:49:17 10° NNW 11:57:28 33° NE 12:05:28 10° E daylight
19 Jun - 13:53:25 10° NW 14:02:29 60° SW 14:11:31 10° SSE daylight
20 Jun - 00:51:47 10° SSE 00:57:04 15° SE 01:02:18 10° E visible
20 Jun - 02:51:27 10° SW 03:01:38 80° SE 03:11:40 10° NE visible
20 Jun - 04:59:02 10° W 05:07:12 27° NW 05:15:15 10° NNE visible
20 Jun - 11:26:29 10° NNW 11:34:29 30° NE 11:42:18 10° E daylight
20 Jun - 13:30:26 10° NW 13:39:36 65° SW 13:48:43 10° SSE daylight
21 Jun - 00:29:44 10° SSE 00:34:07 13° SE 00:38:29 10° E visible
21 Jun - 02:28:33 10° SSW 02:38:41 74° SE 02:48:42 10° NE visible
21 Jun - 04:35:43 10° W 04:44:09 29° NW 04:52:28 10° NNE visible
21 Jun - 11:03:41 10° NNW 11:11:29 28° NE 11:19:05 10° E daylight
21 Jun - 13:07:28 10° NW 13:16:43 71° SW 13:25:53 10° SSE daylight
21 Jun - 15:19:03 10° WSW 15:21:03 11° SW 15:23:03 10° SW daylight
22 Jun - 00:08:00 10° SE 00:11:10 12° SE 00:14:20 10° ESE night (unlit)
22 Jun - 02:05:39 10° SSW 02:15:45 69° SE 02:25:44 10° NE visible
22 Jun - 04:12:26 10° W 04:21:07 32° NW 04:29:41 10° NNE visible
22 Jun - 10:40:54 10° NNW 10:48:28 26° NE 10:55:53 10° E daylight
22 Jun - 12:44:30 10° NW 12:53:50 77° SW 13:03:02 10° SE daylight
22 Jun - 14:54:40 10° WSW 14:58:09 12° SW 15:01:37 10° SSW daylight
22 Jun - 23:47:38 10° SE 23:48:13 10° SE 23:48:48 10° ESE night (unlit)
